Вернуться в каталог

STARLINK-5536

АктивенСвязьVLEO
NORAD 57062·PAYLOAD·🇺🇸 United States

Запущен Jun 22, 2023 с Vandenberg Space Force Base

Loading…

Ближайшие Пролёты (ближайшие 24 часа)

TLE

СвежийSource: CelesTrak SupGP

Эпоха: Sep 15, 2026, 01:43 UTC

1 57062C 23088Q   26258.07201389  .00048642  00000+0  17614-2 0  2586
2 57062  42.9993 106.6027 0001427 253.9899 105.4723 15.27561683    16

Отслеживайте STARLINK-5536 в реальном времени с AllMySat

Download on the App Store